| time (UTC) | temp C | wind direction | speed KPH | gust KPH | rain 1hr cm | rain 24hr cm | rain mn cm | humidity % | barometer mb |
| 20260906130016 | 21 | 82 | 4.8 | 14.5 | 0.00 | 0.00 | 0.00 | 100 | 1020.3 |
| 20260906124501 | 21 | 77 | 1.6 | 12.9 | 0.00 | 0.00 | 0.00 | 100 | 1020.2 |
| 20260906123101 | 20 | 53 | 0.0 | 1.6 | 0.00 | 0.00 | 0.00 | 100 | 1020.2 |
| 20260906121553 | 20 | 51 | 0.0 | 4.8 | 0.00 | 0.00 | 0.00 | 100 | 1020.1 |
| 20260906120059 | 20 | 43 | 0.0 | 0.0 | 0.00 | 0.00 | 0.00 | 100 | 1019.7 |
| 20260906114555 | 20 | 42 | 0.0 | 0.0 | 0.00 | 0.00 | 0.00 | 100 | 1019.4 |
| 20260906113039 | 20 | 42 | 0.0 | 0.0 | 0.00 | 0.00 | 0.00 | 100 | 1019.4 |
| 20260906111543 | 20 | 42 | 0.0 | 0.0 | 0.00 | 0.00 | 0.00 | 100 | 1019.0 |
| 20260906110030 | 20 | 42 | 0.0 | 4.8 | 0.00 | 0.00 | 0.00 | 100 | 1018.9 |
| 20260906104539 | 20 | 42 | 0.0 | 4.8 | 0.00 | 0.00 | 0.00 | 100 | 1018.7 |
| 20260906103040 | 20 | 42 | 0.0 | 6.4 | 0.00 | 0.00 | 0.00 | 100 | 1018.5 |
| 20260906101518 | 20 | 34 | 0.0 | 6.4 | 0.00 | 0.00 | 0.00 | 100 | 1018.4 |
| 20260906100024 | 20 | 22 | 0.0 | 4.8 | 0.00 | 0.00 | 0.00 | 100 | 1018.4 |
| 20260906094508 | 20 | 21 | 0.0 | 0.0 | 0.00 | 0.00 | 0.00 | 100 | 1018.2 |
| 20260906093010 | 20 | 21 | 0.0 | 1.6 | 0.00 | 0.00 | 0.00 | 100 | 1018.2 |
| 20260906091601 | 20 | 21 | 0.0 | 0.0 | 0.00 | 0.00 | 0.00 | 100 | 1018.2 |
| 20260906090057 | 20 | 21 | 0.0 | 0.0 | 0.00 | 0.00 | 0.00 | 100 | 1018.2 |
| 20260906084556 | 21 | 21 | 0.0 | 0.0 | 0.00 | 0.00 | 0.00 | 100 | 1018.1 |
| 20260906083047 | 21 | 21 | 0.0 | 0.0 | 0.00 | 0.00 | 0.00 | 100 | 1018.0 |
| 20260906081543 | 21 | 21 | 0.0 | 0.0 | 0.00 | 0.00 | 0.00 | 100 | 1018.1 |
| 20260906080038 | 21 | 42 | 0.0 | 0.0 | 0.00 | 0.00 | 0.00 | 100 | 1018.2 |
| 20260906074537 | 21 | 48 | 0.0 | 0.0 | 0.00 | 0.00 | 0.00 | 100 | 1018.3 |
| 20260906073031 | 21 | 48 | 0.0 | 0.0 | 0.00 | 0.00 | 0.00 | 100 | 1018.2 |
| 20260906071525 | 21 | 48 | 0.0 | 3.2 | 0.00 | 0.00 | 0.00 | 100 | 1018.3 |
| 20260906070024 | 21 | 48 | 0.0 | 0.0 | 0.00 | 0.00 | 0.00 | 100 | 1018.4 |
| 20260906064517 | 21 | 48 | 0.0 | 0.0 | 0.00 | 0.00 | 0.00 | 100 | 1018.4 |
| 20260906063012 | 22 | 48 | 0.0 | 0.0 | 0.00 | 0.00 | 0.00 | 100 | 1018.3 |
| 20260906061510 | 22 | 47 | 0.0 | 0.0 | 0.00 | 0.00 | 0.00 | 100 | 1018.4 |
| 20260906060003 | 22 | 23 | 0.0 | 11.3 | 0.00 | 0.00 | 0.00 | 100 | 1018.5 |
| 20260906054623 | 22 | 66 | 0.0 | 6.4 | 0.00 | 0.00 | 0.00 | 100 | 1018.1 |
| 20260906053054 | 22 | 58 | 0.0 | 0.0 | 0.00 | 0.00 | 0.00 | 100 | 1018.2 |
| 20260906051550 | 22 | 67 | 0.0 | 0.0 | 0.00 | 0.00 | 0.00 | 100 | 1018.2 |
| 20260906050045 | 22 | 70 | 1.6 | 16.1 | 0.00 | 0.00 | 0.00 | 100 | 1017.8 |
| 20260906044541 | 22 | 63 | 0.0 | 0.0 | 0.00 | 0.00 | 0.00 | 100 | 1018.0 |
| 20260906043037 | 22 | 40 | 0.0 | 0.0 | 0.00 | 0.00 | 0.00 | 100 | 1017.6 |
| 20260906041532 | 23 | 82 | 0.0 | 11.3 | 0.00 | 0.00 | 0.00 | 100 | 1017.4 |
| 20260906040036 | 23 | 74 | 3.2 | 14.5 | 0.00 | 0.00 | 0.00 | 100 | 1017.2 |
| 20260906034523 | 23 | 98 | 1.6 | 14.5 | 0.00 | 0.00 | 0.00 | 100 | 1017.2 |
| 20260906033019 | 23 | 87 | 1.6 | 14.5 | 0.00 | 0.00 | 0.00 | 100 | 1017.2 |
| 20260906031549 | 23 | 88 | 4.8 | 22.5 | 0.00 | 0.00 | 0.00 | 100 | 1017.1 |
| 20260906030011 | 23 | 101 | 8.0 | 25.7 | 0.00 | 0.00 | 0.00 | 100 | 1017.0 |
| 20260906024524 | 23 | 76 | 3.2 | 17.7 | 0.00 | 0.00 | 0.00 | 100 | 1017.1 |
| 20260906023001 | 23 | 84 | 6.4 | 22.5 | 0.00 | 0.00 | 0.00 | 100 | 1017.0 |
| 20260906021604 | 23 | 80 | 3.2 | 22.5 | 0.00 | 0.00 | 0.00 | 100 | 1017.1 |
| 20260906020053 | 23 | 86 | 1.6 | 16.1 | 0.00 | 0.00 | 0.00 | 100 | 1017.0 |
| 20260906014553 | 23 | 78 | 6.4 | 17.7 | 0.00 | 0.00 | 0.00 | 100 | 1017.1 |
| 20260906013048 | 23 | 92 | 3.2 | 20.9 | 0.00 | 0.00 | 0.00 | 100 | 1017.0 |
| 20260906011540 | 23 | 49 | 4.8 | 16.1 | 0.00 | 0.00 | 0.00 | 100 | 1017.0 |
| 20260906010046 | 23 | 61 | 4.8 | 17.7 | 0.00 | 0.00 | 0.00 | 100 | 1017.0 |
| 20260906004531 | 23 | 77 | 4.8 | 20.9 | 0.00 | 0.00 | 0.00 | 100 | 1016.8 |
| 20260906003027 | 24 | 98 | 6.4 | 20.9 | 0.00 | 0.00 | 0.00 | 100 | 1016.7 |
| 20260906001530 | 25 | 76 | 0.0 | 9.7 | 0.00 | 0.00 | 0.00 | 100 | 1016.5 |
| 20260906000020 | 25 | 70 | 4.8 | 20.9 | 0.00 | 0.00 | 0.00 | 100 | 1016.1 |
| 20260905234515 | 26 | 91 | 8.0 | 19.3 | 0.00 | 0.00 | 0.00 | 100 | 1015.8 |
| 20260905233009 | 26 | 86 | 8.0 | 17.7 | 0.00 | 0.00 | 0.00 | 100 | 1015.8 |
| 20260905231505 | 27 | 70 | 3.2 | 14.5 | 0.00 | 0.00 | 0.00 | 100 | 1015.7 |
| 20260905224556 | 28 | 71 | 4.8 | 19.3 | 0.00 | 0.00 | 0.00 | 100 | 1015.3 |
| 20260905223052 | 28 | 91 | 4.8 | 20.9 | 0.00 | 0.00 | 0.00 | 100 | 1015.3 |
| 20260905221549 | 28 | 48 | 3.2 | 16.1 | 0.00 | 0.00 | 0.00 | 100 | 1015.2 |
| 20260905220043 | 30 | 73 | 3.2 | 14.5 | 0.00 | 0.00 | 0.00 | 100 | 1015.1 |
| 20260905214540 | 30 | 86 | 1.6 | 11.3 | 0.00 | 0.00 | 0.00 | 100 | 1015.4 |
| 20260905213038 | 30 | 65 | 3.2 | 12.9 | 0.00 | 0.00 | 0.00 | 100 | 1015.4 |
| 20260905211555 | 29 | 333 | 0.0 | 12.9 | 0.00 | 0.00 | 0.00 | 100 | 1015.5 |
| 20260905210025 | 29 | 46 | 0.0 | 14.5 | 0.00 | 0.00 | 0.00 | 100 | 1015.7 |
| 20260905204521 | 28 | 13 | 0.0 | 9.7 | 0.00 | 0.00 | 0.00 | 100 | 1016.1 |
| 20260905203017 | 27 | 47 | 0.0 | 12.9 | 0.00 | 0.00 | 0.00 | 100 | 1016.4 |
| 20260905201513 | 27 | 80 | 1.6 | 14.5 | 0.00 | 0.00 | 0.00 | 100 | 1016.5 |
| 20260905200009 | 28 | 17 | 3.2 | 22.5 | 0.00 | 0.00 | 0.00 | 100 | 1016.6 |
| 20260905194503 | 28 | 80 | 9.7 | 22.5 | 0.00 | 0.00 | 0.00 | 100 | 1016.8 |
| 20260905193101 | -17 | 0.0 | 0.0 | 0.00 | 0.00 | 0.00 | 1016.8 | ||
| 20260905191554 | -17 | 0.0 | 0.0 | 0.00 | 0.00 | 0.00 | 1016.8 | ||
| 20260905190050 | -17 | 0.0 | 0.0 | 0.00 | 0.00 | 0.00 | 1016.8 | ||
| 20260905184546 | -17 | 0.0 | 0.0 | 0.00 | 0.00 | 0.00 | 1016.8 | ||
| 20260905183045 | -17 | 0.0 | 0.0 | 0.00 | 0.00 | 0.00 | 1016.9 | ||
| 20260905181537 | -17 | 0.0 | 0.0 | 0.00 | 0.00 | 0.00 | 1016.9 | ||
| 20260905180033 | -17 | 0.0 | 0.0 | 0.00 | 0.00 | 0.00 | 1016.7 | ||
| 20260905174529 | -17 | 0.0 | 0.0 | 0.00 | 0.00 | 0.00 | 1016.6 | ||
| 20260905173048 | -17 | 0.0 | 0.0 | 0.00 | 0.00 | 0.00 | 1016.7 | ||
| 20260905171520 | -17 | 0.0 | 0.0 | 0.00 | 0.00 | 0.00 | 1016.7 | ||
| 20260905170015 | -17 | 0.0 | 0.0 | 0.00 | 0.00 | 0.00 | 1016.8 | ||
| 20260905164510 | -17 | 0.0 | 0.0 | 0.00 | 0.00 | 0.00 | 1016.9 | ||
| 20260905163005 | -17 | 0.0 | 0.0 | 0.00 | 0.00 | 0.00 | 1016.9 | ||
| 20260905161501 | -17 | 0.0 | 0.0 | 0.00 | 0.00 | 0.00 | 1016.9 | ||
| 20260905160057 | -17 | 0.0 | 0.0 | 0.00 | 0.00 | 0.00 | 1016.9 | ||
| 20260905154557 | -17 | 0.0 | 0.0 | 0.00 | 0.00 | 0.00 | 1016.7 | ||
| 20260905153048 | -17 | 0.0 | 0.0 | 0.00 | 0.00 | 0.00 | 1016.6 | ||
| 20260905151548 | -17 | 0.0 | 0.0 | 0.00 | 0.00 | 0.00 | 1016.4 | ||
| 20260905150039 | -17 | 0.0 | 0.0 | 0.00 | 0.00 | 0.00 | 1016.2 | ||
| 20260905144535 | -17 | 0.0 | 0.0 | 0.00 | 0.00 | 0.00 | 1015.9 | ||
| 20260905143034 | -17 | 0.0 | 0.0 | 0.00 | 0.00 | 0.00 | 1015.7 | ||
| 20260905141529 | -17 | 0.0 | 0.0 | 0.00 | 0.00 | 0.00 | 1015.5 | ||
| 20260905140021 | -17 | 0.0 | 0.0 | 0.00 | 0.00 | 0.00 | 1014.9 | ||
| 20260905134517 | -17 | 0.0 | 0.0 | 0.00 | 0.00 | 0.00 | 1014.9 | ||
| 20260905133013 | -17 | 0.0 | 0.0 | 0.00 | 0.00 | 0.00 | 1014.7 | ||
| 20260905131509 | -17 | 0.0 | 0.0 | 0.00 | 0.00 | 0.00 | 1015.1 |